Total_Precipitation_Accumulation
2.29 2.49 2.88 3.29 3.56 3.74 3.86 4.20 4.37 4.14 3.69 3.30 2.85 2.75 2.73 2.51 2.30 2.21 2.07 2.25 2.16 2.36 2.74 2.49 2.80 2.47 2.55 2.72 2.74 2.96 2.91 2.60 2.54 2.94 2.97 2.37 1.91 1.97 1.86 1.81 2.04 2.03 2.14
1.93 2.00 2.15 2.50 2.72 2.96 3.26 3.60 3.84 3.70 3.12 2.91 2.74 2.67 2.65 2.48 2.51 2.41 2.40 2.14 2.11 2.32 2.38 2.77 2.55 2.62 2.80 2.81 2.86 3.02 3.01 2.70 2.65 3.09 3.44 3.02 2.90 2.51 1.74 1.80 1.97 2.01 2.23
1.67 1.77 1.79 1.89 2.16 2.76 2.99 2.89 3.16 3.34 3.08 3.00 2.94 2.86 2.82 2.62 2.72 2.70 2.58 2.21 2.05 2.04 2.22 2.41 2.44 2.68 2.49 2.84 3.08 3.04 3.14 3.14 2.95 3.00 3.44 3.45 3.29 2.76 2.19 1.78 1.77 1.99 2.36
1.27 1.47 1.43 1.49 1.73 2.04 2.34 2.70 3.03 3.11 3.03 2.93 2.75 2.66 2.47 2.42 2.44 2.44 2.44 2.30 2.16 2.03 2.12 2.26 2.56 2.73 2.47 3.03 2.63 2.76 3.04 3.20 3.02 2.99 2.84 2.95 3.17 3.24 2.94 2.37 1.88 1.86 2.09
0.82 0.99 1.13 1.26 1.35 1.50 1.91 2.48 2.95 3.17 3.06 2.75 2.63 2.75 2.59 2.50 2.48 2.37 2.55 2.40 2.23 2.06 1.96 2.25 2.53 2.65 2.53 2.69 2.76 3.04 2.92 2.87 2.88 2.97 3.05 3.18 3.12 2.85 2.98 2.91 2.55 2.21 1.74
0.63 0.72 0.83 1.06 1.21 1.29 1.57 2.04 2.48 2.78 2.85 2.67 2.55 2.62 2.72 2.70 2.56 2.43 2.41 2.22 2.19 2.12 2.03 2.22 2.52 2.48 2.53 2.71 2.68 2.83 2.82 2.90 3.00 2.84 2.78 3.03 3.01 2.89 2.98 2.70 2.49 2.38 1.74
0.62 0.75 0.83 0.97 1.00 1.06 1.33 1.65 1.88 2.11 2.33 2.49 2.55 2.47 2.63 2.71 2.50 2.27 2.32 2.28 2.12 2.12 2.18 2.32 2.61 2.51 2.59 2.67 2.91 2.97 2.87 2.86 2.92 2.76 2.61 2.59 2.48 2.59 2.79 2.94 2.55 2.29 1.80
0.67 0.75 0.92 0.99 0.93 0.97 1.21 1.44 1.64 1.90 2.17 2.36 2.42 2.35 2.29 2.20 2.16 2.30 2.21 2.21 2.18 2.13 2.07 2.22 2.27 2.25 2.33 2.40 2.92 2.76 2.71 2.81 2.73 2.47 2.76 2.63 2.26 2.37 2.56 2.90 3.15 2.85 2.40
0.79 0.86 1.00 1.04 0.94 1.00 1.22 1.38 1.57 1.74 1.90 2.20 2.37 2.27 2.20 2.04 2.00 2.06 2.05 2.00 2.15 2.12 2.07 2.06 2.13 2.19 2.35 2.52 2.70 2.62 2.71 2.91 2.74 2.65 2.82 2.60 2.33 2.30 2.27 2.64 3.09 3.44 3.19
0.91 1.02 1.02 1.06 1.02 1.09 1.32 1.38 1.50 1.59 1.63 1.78 1.85 1.76 1.96 1.97 2.08 2.06 1.97 1.89 1.89 1.93 2.00 2.09 2.11 2.19 2.30 2.54 2.73 2.72 2.83 2.91 2.77 2.79 2.87 2.72 2.46 2.53 2.38 2.47 2.83 3.13 3.32
0.89 1.00 0.97 0.96 0.93 0.99 1.13 1.15 1.30 1.45 1.51 1.64 1.69 1.74 1.86 1.93 1.97 2.01 1.98 1.99 1.98 1.99 2.00 2.09 2.15 2.17 2.19 2.38 2.59 2.50 2.76 2.91 2.95 2.76 2.73 2.70 2.75 2.78 2.61 2.71 2.80 2.88 3.21
0.71 0.92 0.99 1.01 0.82 0.87 0.96 1.08 1.26 1.38 1.45 1.63 1.77 1.82 1.97 2.02 1.96 2.00 2.19 2.19 2.14 2.10 2.09 2.18 2.28 2.24 2.26 2.43 2.44 2.29 2.39 2.62 2.86 3.08 3.21 2.96 2.99 3.03 2.87 2.86 2.85 2.90 3.15
0.74 0.88 0.97 0.89 0.80 0.82 0.90 0.94 1.07 1.23 1.35 1.49 1.66 1.89 1.99 2.05 2.21 2.39 2.55 2.57 2.46 2.40 2.38 2.44 2.37 2.41 2.47 2.46 2.36 2.39 2.42 2.51 2.58 2.85 3.13 3.15 3.35 3.10 3.11 3.02 2.90 2.92 2.94
0.70 0.71 0.87 0.91 0.83 0.80 0.83 0.88 1.02 1.18 1.35 1.63 1.84 2.03 2.26 2.43 2.59 2.61 2.70 2.70 2.66 2.64 2.62 2.62 2.54 2.49 2.55 2.57 2.56 2.55 2.50 2.54 2.51 2.57 2.70 2.85 3.15 3.15 3.24 3.07 3.08 3.20 3.26
0.67 0.80 0.92 1.07 1.07 0.99 0.92 0.94 1.18 1.41 1.63 1.92 2.05 2.12 2.24 2.43 2.70 2.94 2.94 2.86 2.78 2.69 2.86 2.84 2.73 2.72 2.71 2.49 2.64 2.87 2.83 2.89 2.66 2.55 2.51 2.51 2.77 2.86 2.93 2.68 2.90 3.23 3.30
0.79 0.94 1.07 1.20 1.29 1.32 1.30 1.32 1.48 1.74 2.06 2.38 2.52 2.66 2.76 2.88 3.02 3.12 3.18 3.23 3.18 3.11 3.06 2.94 2.97 2.93 2.65 2.77 2.85 2.78 2.83 3.03 3.00 2.83 2.76 2.62 2.55 2.55 2.60 2.63 2.72 2.90 2.93
0.95 1.07 1.17 1.24 1.38 1.42 1.50 1.69 1.87 2.10 2.34 2.54 2.66 2.78 2.89 3.06 3.22 3.30 3.37 3.24 3.20 3.16 3.05 3.02 3.06 2.97 2.97 2.93 2.69 2.57 2.58 2.68 2.76 2.81 2.78 2.46 2.30 2.55 2.45 2.62 2.65 2.47 2.41
1.09 1.13 1.20 1.30 1.40 1.53 1.70 1.89 2.04 2.17 2.49 2.72 2.82 2.88 2.93 3.02 3.23 3.45 3.37 3.21 3.19 3.14 3.10 3.05 2.95 2.87 2.75 2.80 2.55 2.55 2.45 2.39 2.34 2.46 2.57 2.51 2.38 2.42 2.56 2.48 2.22 1.99 1.99
1.08 1.17 1.28 1.36 1.49 1.57 1.62 1.63 1.76 1.96 2.21 2.45 2.64 2.66 2.82 3.00 3.12 3.16 3.18 3.27 3.25 3.06 2.91 2.80 2.78 2.73 2.78 3.02 2.73 2.61 2.38 2.35 2.18 2.20 2.22 2.24 2.10 2.26 2.41 2.29 2.05 1.86 1.77
1.13 1.24 1.39 1.44 1.42 1.46 1.51 1.58 1.74 1.96 2.18 2.40 2.61 2.79 2.95 3.11 3.14 3.17 3.31 3.38 3.36 3.32 3.27 3.13 3.07 2.97 2.91 3.13 2.86 2.68 2.40 2.35 2.28 2.30 2.26 2.32 2.09 2.04 1.99 1.88 1.89 1.70 1.61
1.08 1.18 1.34 1.50 1.51 1.49 1.67 1.85 1.99 2.14 2.32 2.45 2.55 2.70 2.90 3.13 3.39 3.57 3.51 3.51 3.49 3.42 3.26 3.12 2.97 2.93 2.91 2.86 2.67 2.53 2.20 2.12 2.20 2.06 1.93 1.97 2.00 1.79 1.63 1.59 1.57 1.52 1.64
1.02 1.22 1.36 1.49 1.63 1.73 1.88 2.04 2.09 2.15 2.36 2.57 2.67 2.75 2.95 3.02 3.18 3.46 3.49 3.42 3.41 3.33 3.25 3.25 3.22 3.11 2.92 2.63 2.39 2.27 2.11 2.10 2.06 2.05 2.03 2.05 2.09 1.85 1.70 1.53 1.39 1.48 1.51
1.10 1.24 1.38 1.52 1.61 1.81 2.00 2.15 2.22 2.28 2.39 2.53 2.72 2.91 3.02 3.09 3.22 3.39 3.46 3.44 3.36 3.23 3.12 3.03 2.88 2.87 2.86 2.74 2.51 2.21 1.99 1.95 1.83 1.99 2.32 2.36 2.28 2.05 1.77 1.68 1.70 1.65 1.51
1.34 1.38 1.47 1.57 1.65 1.73 1.95 2.16 2.28 2.31 2.43 2.51 2.58 2.75 2.91 3.05 3.22 3.24 3.11 2.98 2.85 2.79 2.78 2.65 2.55 2.55 2.61 2.48 2.38 2.20 2.08 2.07 1.95 1.98 2.26 2.44 2.42 2.27 2.02 1.91 1.83 1.63 1.56
1.44 1.48 1.58 1.70 1.75 1.77 1.84 2.09 2.28 2.37 2.41 2.54 2.62 2.61 2.63 2.72 2.89 2.96 2.92 2.79 2.63 2.49 2.45 2.34 2.33 2.33 2.27 2.31 2.37 2.21 2.08 2.06 2.10 2.18 2.34 2.46 2.57 2.58 2.50 2.38 2.30 2.18 2.04
1.57 1.60 1.64 1.68 1.73 1.84 1.94 2.04 2.31 2.57 2.65 2.64 2.51 2.43 2.35 2.34 2.42 2.45 2.48 2.61 2.50 2.49 2.34 2.21 2.15 2.08 2.12 2.17 2.14 2.03 1.96 1.97 2.11 2.14 2.19 2.42 2.63 2.71 2.79 2.82 2.71 2.49 2.31